Home   Weather   Bristol   Past weeks
Flag for United Kingdom

Past Weather in Bristol, England, United Kingdom — Yesterday and Last 2 Weeks

Now
54 °F

Broken clouds.


Feels Like: 49 °F
Forecast: 55 / 47 °F
Wind: 17 mph from Southwest

Location: Bristol / Lulsgate

Current Time: Oct 18, 2019 at 3:20:49 pm

Latest Report: Oct 18, 2019 at 2:50 pm


Visibility: N/A

Pressure: 29.45 "Hg

Humidity: 82%

Dew Point: 48 °F

Location of BristolLocation

Past Weather in Bristol — Graph

°F

Bristol Temperature Yesterday

Maximum temperature yesterday: 57 °F (at 1:20 pm)
Minimum temperature yesterday: 46 °F (at 12:20 am)
Average temperature yesterday: 51 °F

High & Low Weather Summary for the Past Weeks

 TemperatureHumidityPressure
High61 °F (Oct 5, 12:50 pm)100% (Oct 3, 6:50 pm)30.04 "Hg (Oct 3, 6:50 pm)
Low46 °F (Oct 17, 12:20 am)63% (Oct 6, 2:50 pm)29.42 "Hg (Oct 18, 2:20 am)
Average53 °F89%29.73 "Hg
* Reported Oct 3 1:20 pm — Oct 18 1:50 pm, Bristol. Weather by CustomWeather, © 2019

Note: Actual official high and low records may vary slightly from our data, if they occured in-between our weather recording intervals... More about our weather records

Advertising

Bristol Weather History for the Previous 24 Hours

Scroll right to see more
 ConditionsComfort  
Time TempWeatherWind HumidityBarometerVisibility
1:50 pm
Fri, Oct 18
54 °FScattered showers. Broken clouds.12 mph77%29.47 "HgN/A
1:20 pm54 °FLight rain. Broken clouds.16 mph77%29.47 "HgN/A
12:50 pm52 °FScattered clouds.16 mph88%29.47 "HgN/A
12:20 pm50 °FSprinkles. Scattered clouds.13 mph88%29.47 "HgN/A
11:50 am50 °FLight rain. Passing clouds.15 mph88%29.47 "HgN/A
11:20 am50 °FBroken clouds.13 mph88%29.47 "HgN/A
10:50 am48 °FLight rain. Broken clouds.15 mph94%29.50 "Hg4 mi
10:20 am50 °FCool.13 mph82%29.47 "HgN/A
9:20 am48 °FPassing clouds.14 mph87%29.47 "HgN/A
8:50 am46 °FCool.10 mph87%29.47 "HgN/A
8:20 am46 °FSprinkles. Passing clouds.12 mph93%29.47 "HgN/A
7:50 am46 °FLight rain. Passing clouds.12 mph93%29.47 "HgN/A
7:20 am46 °FLight rain. Passing clouds.10 mph87%29.47 "HgN/A
6:50 am46 °FSprinkles. Passing clouds.12 mph93%29.47 "HgN/A
6:20 am46 °FPassing clouds.9 mph87%29.45 "HgN/A
5:50 am46 °FPassing clouds.8 mph93%29.45 "HgN/A
5:20 am46 °FCool.8 mph93%29.45 "HgN/A
4:50 am46 °FLight rain. Passing clouds.9 mph93%29.45 "HgN/A
4:20 am48 °FPartly cloudy.10 mph94%29.45 "HgN/A
3:50 am48 °FPassing clouds.9 mph94%29.45 "HgN/A
3:20 am48 °FLight rain. Mostly cloudy.9 mph94%29.45 "HgN/A
2:50 am50 °FLight rain. Passing clouds.9 mph88%29.45 "HgN/A
2:20 am50 °FLight rain. Passing clouds.9 mph88%29.42 "HgN/A
1:50 am50 °FLight rain. Partly cloudy.10 mph94%29.45 "HgN/A
1:20 am50 °FPassing clouds.13 mph94%29.45 "HgN/A
12:50 am50 °FPartly cloudy.10 mph88%29.45 "HgN/A
12:20 am50 °FPassing clouds.12 mph88%29.47 "HgN/A
11:50 pm
Thu, Oct 17
52 °FPassing clouds.10 mph88%29.47 "HgN/A
11:20 pm52 °FLight rain. Passing clouds.9 mph88%29.47 "HgN/A
10:50 pm52 °FLight rain. Overcast.12 mph88%29.50 "HgN/A
10:20 pm52 °FPassing clouds.8 mph88%29.50 "HgN/A
9:50 pm52 °FPassing clouds.12 mph88%29.53 "HgN/A
9:20 pm52 °FPassing clouds.10 mph82%29.53 "HgN/A
8:50 pm52 °FCool.12 mph82%29.53 "HgN/A
8:20 pm52 °FCool.13 mph82%29.53 "HgN/A
7:50 pm50 °FCool.13 mph82%29.56 "HgN/A
7:20 pm52 °FCool.10 mph82%29.56 "HgN/A
6:50 pm52 °FScattered showers. Passing clouds.10 mph82%29.56 "HgN/A
6:20 pm54 °FScattered showers. Passing clouds.8 mph82%29.56 "HgN/A
5:50 pm54 °FSprinkles. Partly sunny.10 mph82%29.56 "HgN/A
5:20 pm54 °FScattered showers. Scattered clouds.8 mph77%29.56 "HgN/A
3:50 pm57 °FPartly sunny.10 mph67%29.59 "HgN/A
3:20 pm57 °FPassing clouds.14 mph67%29.59 "HgN/A
Weather by CustomWeather, © 2019

See weather overview